Time,TemperatureF,DewpointF,PressureIn,WindDirection,WindDirectionDegrees,WindSpeedMPH,WindSpeedGustMPH,Humidity,HourlyPrecipIn,Conditions,Clouds,dailyrainin,SoftwareType,DateUTC
2013-09-19 00:03:00,65.5,65.2,29.93,ENE,67,4.1,4.1,99,0.00,,,0.00,WUHU216WMR100,2013-09-19 05:03:00,
2013-09-19 00:08:00,65.5,65.2,29.93,NE,45,3.3,4.5,99,0.00,,,0.00,WUHU216WMR100,2013-09-19 05:08:00,
2013-09-19 00:13:00,65.5,65.2,29.93,ENE,67,3.3,4.5,99,0.00,,,0.00,WUHU216WMR100,2013-09-19 05:13:00,
2013-09-19 00:18:00,65.5,65.2,29.93,ESE,112,4.5,5.6,99,0.00,,,0.00,WUHU216WMR100,2013-09-19 05:18:00,
2013-09-19 00:23:00,65.5,65.2,29.93,ESE,112,0.0,5.6,99,0.00,,,0.00,WUHU216WMR100,2013-09-19 05:23:00,
2013-09-19 00:28:00,65.5,65.2,29.93,SSE,157,1.5,4.5,99,0.00,,,0.00,WUHU216WMR100,2013-09-19 05:28:00,
2013-09-19 00:33:00,65.7,65.4,29.93,East,90,0.0,4.5,99,0.00,,,0.00,WUHU216WMR100,2013-09-19 05:33:00,
2013-09-19 00:38:00,65.7,65.4,29.93,SW,225,0.0,2.1,99,0.00,,,0.00,WUHU216WMR100,2013-09-19 05:38:00,
2013-09-19 00:43:00,65.7,65.4,29.93,West,270,3.3,3.3,99,0.00,,,0.00,WUHU216WMR100,2013-09-19 05:43:00,
2013-09-19 00:48:00,65.7,65.4,29.93,West,277,4.3,5.1,99,0.00,,,0.00,WUHU216WMR100,2013-09-19 05:48:00,
2013-09-19 00:53:00,65.7,65.4,29.93,WNW,292,4.1,5.1,99,0.00,,,0.00,WUHU216WMR100,2013-09-19 05:53:00,
2013-09-19 00:58:00,65.7,65.4,29.93,SW,225,5.1,5.1,99,0.00,,,0.00,WUHU216WMR100,2013-09-19 05:58:00,
2013-09-19 01:03:00,65.7,65.4,29.93,NNW,337,0.0,5.1,99,0.00,,,0.00,WUHU216WMR100,2013-09-19 06:03:00,
2013-09-19 01:08:00,65.7,65.4,29.93,SSE,157,0.0,5.1,99,0.00,,,0.00,WUHU216WMR100,2013-09-19 06:08:00,
2013-09-19 01:13:00,65.7,65.4,29.93,ESE,112,4.1,4.1,99,0.00,,,0.00,WUHU216WMR100,2013-09-19 06:13:00,
2013-09-19 01:18:00,65.7,65.4,29.93,ESE,112,5.9,5.9,99,0.00,,,0.00,WUHU216WMR100,2013-09-19 06:18:00,
2013-09-19 01:23:00,65.7,65.4,29.93,ESE,112,1.5,5.9,99,0.00,,,0.00,WUHU216WMR100,2013-09-19 06:23:00,
2013-09-19 01:28:00,65.5,65.2,29.93,ESE,112,4.8,5.9,99,0.00,,,0.00,WUHU216WMR100,2013-09-19 06:28:00,
2013-09-19 01:33:00,65.5,65.2,29.93,NNW,337,1.5,5.6,99,0.00,,,0.00,WUHU216WMR100,2013-09-19 06:33:00,
2013-09-19 01:38:00,65.5,65.2,29.93,SW,225,5.1,5.1,99,0.00,,,0.00,WUHU216WMR100,2013-09-19 06:38:00,
2013-09-19 01:43:00,65.5,65.2,29.93,SSE,157,1.5,5.1,99,0.00,,,0.00,WUHU216WMR100,2013-09-19 06:43:00,
2013-09-19 01:48:00,65.3,65.0,29.93,ESE,112,5.6,5.9,99,0.00,,,0.00,WUHU216WMR100,2013-09-19 06:48:00,
2013-09-19 01:53:00,65.3,65.0,29.93,ESE,112,4.1,5.9,99,0.00,,,0.00,WUHU216WMR100,2013-09-19 06:53:00,
2013-09-19 01:58:00,65.3,65.0,29.93,NNW,337,2.6,4.1,99,0.00,,,0.00,WUHU216WMR100,2013-09-19 06:58:00,
2013-09-19 02:03:00,65.1,64.8,29.93,SSW,202,6.3,6.3,99,0.00,,,0.00,WUHU216WMR100,2013-09-19 07:03:00,
2013-09-19 02:08:00,65.3,65.0,29.93,ESE,118,4.3,6.6,99,0.00,,,0.00,WUHU216WMR100,2013-09-19 07:08:00,
2013-09-19 02:13:00,65.3,65.0,29.93,SSE,157,3.3,6.6,99,0.00,,,0.00,WUHU216WMR100,2013-09-19 07:13:00,
2013-09-19 02:18:00,65.5,65.2,29.93,SSE,157,3.3,5.6,99,0.00,,,0.00,WUHU216WMR100,2013-09-19 07:18:00,
2013-09-19 02:23:00,65.5,65.2,29.93,SE,135,2.6,5.6,99,0.00,,,0.00,WUHU216WMR100,2013-09-19 07:23:00,
2013-09-19 02:28:00,65.5,65.2,29.93,ESE,112,0.0,2.6,99,0.00,,,0.00,WUHU216WMR100,2013-09-19 07:28:00,
2013-09-19 02:33:00,65.5,65.2,29.93,ESE,112,2.1,3.6,99,0.00,,,0.00,WUHU216WMR100,2013-09-19 07:33:00,
2013-09-19 02:38:00,65.7,65.4,29.93,East,90,0.0,3.6,99,0.00,,,0.00,WUHU216WMR100,2013-09-19 07:38:00,
2013-09-19 02:43:00,65.7,65.4,29.93,SE,133,2.6,6.6,99,0.00,,,0.00,WUHU216WMR100,2013-09-19 07:43:00,
2013-09-19 02:48:00,65.8,65.5,29.93,SE,135,4.5,6.6,99,0.00,,,0.00,WUHU216WMR100,2013-09-19 07:48:00,
2013-09-19 02:53:00,65.8,65.5,29.93,ESE,112,0.0,4.5,99,0.00,,,0.00,WUHU216WMR100,2013-09-19 07:53:00,
2013-09-19 02:58:00,65.8,65.5,29.93,ESE,112,0.0,2.6,99,0.00,,,0.00,WUHU216WMR100,2013-09-19 07:58:00,
2013-09-19 03:03:00,65.8,65.5,29.93,WNW,292,0.0,1.8,99,0.00,,,0.00,WUHU216WMR100,2013-09-19 08:03:00,
2013-09-19 03:08:00,65.8,65.5,29.93,SSE,157,0.0,2.1,99,0.00,,,0.00,WUHU216WMR100,2013-09-19 08:08:00,
2013-09-19 03:13:00,65.8,65.5,29.93,ESE,105,2.1,3.3,99,0.00,,,0.00,WUHU216WMR100,2013-09-19 08:13:00,
2013-09-19 03:18:00,65.8,65.5,29.93,ESE,112,4.1,4.8,99,0.00,,,0.00,WUHU216WMR100,2013-09-19 08:18:00,
2013-09-19 03:23:00,65.8,65.5,29.93,SSW,202,0.0,4.8,99,0.00,,,0.00,WUHU216WMR100,2013-09-19 08:23:00,
2013-09-19 03:28:00,65.8,65.5,29.93,NNE,22,0.0,0.0,99,0.00,,,0.00,WUHU216WMR100,2013-09-19 08:28:00,
2013-09-19 03:33:00,66.0,65.7,29.90,ESE,121,2.3,3.3,99,0.00,,,0.00,WUHU216WMR100,2013-09-19 08:33:00,
2013-09-19 03:38:00,66.0,65.7,29.90,SE,135,2.6,3.6,99,0.00,,,0.00,WUHU216WMR100,2013-09-19 08:38:00,
2013-09-19 03:43:00,66.0,65.7,29.90,ENE,67,2.6,3.6,99,0.00,,,0.00,WUHU216WMR100,2013-09-19 08:43:00,
2013-09-19 03:48:00,66.0,65.7,29.90,ESE,112,0.0,3.3,99,0.00,,,0.00,WUHU216WMR100,2013-09-19 08:48:00,
2013-09-19 03:53:00,66.0,65.7,29.90,SSE,157,2.1,3.3,99,0.00,,,0.00,WUHU216WMR100,2013-09-19 08:53:00,
2013-09-19 03:58:00,66.0,65.7,29.90,ENE,67,0.0,2.1,99,0.00,,,0.00,WUHU216WMR100,2013-09-19 08:58:00,
2013-09-19 04:03:00,66.0,65.7,29.90,NNE,22,0.0,0.0,99,0.00,,,0.00,WUHU216WMR100,2013-09-19 09:03:00,
2013-09-19 04:08:00,66.0,65.7,29.90,SE,138,3.6,4.8,99,0.00,,,0.00,WUHU216WMR100,2013-09-19 09:08:00,
2013-09-19 04:13:00,66.2,65.9,29.90,SE,139,2.0,4.8,99,0.00,,,0.00,WUHU216WMR100,2013-09-19 09:13:00,
2013-09-19 04:18:00,66.4,66.1,29.90,West,270,1.5,3.6,99,0.00,,,0.00,WUHU216WMR100,2013-09-19 09:18:00,
2013-09-19 04:23:00,66.4,66.1,29.90,ESE,112,3.3,3.3,99,0.00,,,0.00,WUHU216WMR100,2013-09-19 09:23:00,
2013-09-19 04:28:00,66.6,66.3,29.90,SSE,157,1.5,3.3,99,0.00,,,0.00,WUHU216WMR100,2013-09-19 09:28:00,
2013-09-19 04:33:00,66.6,66.3,29.90,ESE,112,2.1,4.1,99,0.00,,,0.00,WUHU216WMR100,2013-09-19 09:33:00,
2013-09-19 04:38:00,66.7,66.4,29.90,NNW,337,0.0,4.1,99,0.00,,,0.00,WUHU216WMR100,2013-09-19 09:38:00,
2013-09-19 04:43:00,66.7,66.4,29.90,SSE,157,0.0,3.3,99,0.00,,,0.00,WUHU216WMR100,2013-09-19 09:43:00,
2013-09-19 04:48:00,66.7,66.4,29.90,SE,135,6.3,6.3,99,0.00,,,0.00,WUHU216WMR100,2013-09-19 09:48:00,
2013-09-19 04:53:00,66.9,66.6,29.90,ESE,112,0.0,6.3,99,0.00,,,0.00,WUHU216WMR100,2013-09-19 09:53:00,
2013-09-19 04:58:00,67.1,66.8,29.90,SE,135,3.6,3.6,99,0.00,,,0.00,WUHU216WMR100,2013-09-19 09:58:00,
2013-09-19 05:03:00,67.1,66.8,29.90,ENE,67,0.0,3.6,99,0.00,,,0.00,WUHU216WMR100,2013-09-19 10:03:00,
2013-09-19 05:08:00,67.3,67.0,29.90,ESE,112,0.0,0.0,99,0.00,,,0.00,WUHU216WMR100,2013-09-19 10:08:00,
2013-09-19 05:13:00,67.3,67.0,29.90,SE,135,5.1,5.1,99,0.00,,,0.00,WUHU216WMR100,2013-09-19 10:13:00,
2013-09-19 05:18:00,67.1,66.5,29.90,ENE,67,2.6,9.6,98,0.00,,,0.00,WUHU216WMR100,2013-09-19 10:18:00,
2013-09-19 05:23:00,67.1,66.5,29.90,SE,139,3.8,9.6,98,0.00,,,0.00,WUHU216WMR100,2013-09-19 10:23:00,
2013-09-19 05:28:00,67.1,66.2,29.90,NNE,22,2.6,4.5,97,0.00,,,0.00,WUHU216WMR100,2013-09-19 10:28:00,
2013-09-19 05:33:00,66.9,66.0,29.90,ESE,112,0.0,4.5,97,0.00,,,0.00,WUHU216WMR100,2013-09-19 10:33:00,
2013-09-19 05:38:00,66.7,65.8,29.90,ESE,112,2.1,4.5,97,0.00,,,0.00,WUHU216WMR100,2013-09-19 10:38:00,
2013-09-19 05:43:00,66.7,65.8,29.90,South,180,2.1,4.5,97,0.00,,,0.00,WUHU216WMR100,2013-09-19 10:43:00,
2013-09-19 05:48:00,66.6,65.7,29.90,East,90,0.0,2.1,97,0.00,,,0.00,WUHU216WMR100,2013-09-19 10:48:00,
2013-09-19 05:53:00,66.6,65.7,29.90,ESE,112,7.1,7.1,97,0.00,,,0.00,WUHU216WMR100,2013-09-19 10:53:00,
2013-09-19 05:58:00,66.7,66.1,29.90,ESE,112,5.6,7.1,98,0.00,,,0.00,WUHU216WMR100,2013-09-19 10:58:00,
2013-09-19 06:03:00,66.7,66.1,29.90,SSE,157,2.3,5.6,98,0.00,,,0.00,WUHU216WMR100,2013-09-19 11:03:00,
2013-09-19 06:08:00,66.6,66.0,29.90,ESE,112,4.1,4.1,98,0.00,,,0.00,WUHU216WMR100,2013-09-19 11:08:00,
2013-09-19 06:13:00,66.6,66.0,29.90,ENE,67,2.1,4.8,98,0.00,,,0.00,WUHU216WMR100,2013-09-19 11:13:00,
2013-09-19 06:18:00,66.6,66.0,29.90,SE,135,2.1,5.9,98,0.00,,,0.00,WUHU216WMR100,2013-09-19 11:18:00,
2013-09-19 06:23:00,66.6,66.0,29.90,ESE,113,2.6,5.9,98,0.00,,,0.00,WUHU216WMR100,2013-09-19 11:23:00,
2013-09-19 06:28:00,66.6,66.0,29.90,WSW,247,2.6,4.8,98,0.00,,,0.00,WUHU216WMR100,2013-09-19 11:28:00,
2013-09-19 06:33:00,66.7,66.1,29.93,ESE,105,5.7,7.8,98,0.00,,,0.00,WUHU216WMR100,2013-09-19 11:33:00,
2013-09-19 06:38:00,66.9,66.3,29.93,SSW,194,8.0,10.4,98,0.00,,,0.00,WUHU216WMR100,2013-09-19 11:38:00,
2013-09-19 06:43:00,67.1,66.2,29.93,SE,126,4.8,10.4,97,0.00,,,0.00,WUHU216WMR100,2013-09-19 11:43:00,
2013-09-19 06:48:00,67.3,66.4,29.90,South,175,2.9,8.1,97,0.00,,,0.00,WUHU216WMR100,2013-09-19 11:48:00,
2013-09-19 06:53:00,67.1,65.6,29.90,South,174,7.4,9.6,95,0.00,,,0.00,WUHU216WMR100,2013-09-19 11:53:00,
2013-09-19 06:58:00,67.3,65.5,29.90,SSE,157,5.9,9.6,94,0.00,,,0.00,WUHU216WMR100,2013-09-19 11:58:00,
2013-09-19 07:03:00,67.3,65.2,29.90,ESE,115,4.8,6.3,93,0.00,,,0.00,WUHU216WMR100,2013-09-19 12:03:00,
2013-09-19 07:08:00,67.5,65.1,29.90,South,180,4.8,6.3,92,0.00,,,0.00,WUHU216WMR100,2013-09-19 12:08:00,
2013-09-19 07:13:00,67.8,65.4,29.90,ENE,74,2.4,5.9,92,0.00,,,0.00,WUHU216WMR100,2013-09-19 12:13:00,
2013-09-19 07:18:00,68.4,66.0,29.93,SE,135,6.6,8.9,92,0.00,,,0.00,WUHU216WMR100,2013-09-19 12:18:00,
2013-09-19 07:23:00,68.9,66.1,29.93,SSE,154,4.8,8.9,91,0.00,,,0.00,WUHU216WMR100,2013-09-19 12:23:00,
2013-09-19 07:28:00,69.3,66.5,29.93,SSE,157,6.3,7.1,91,0.00,,,0.00,WUHU216WMR100,2013-09-19 12:28:00,
2013-09-19 07:33:00,70.0,66.9,29.90,South,173,2.6,6.3,90,0.00,,,0.00,WUHU216WMR100,2013-09-19 12:33:00,
2013-09-19 07:38:00,69.8,65.8,29.90,SSE,157,7.0,8.9,87,0.00,,,0.00,WUHU216WMR100,2013-09-19 12:38:00,
2013-09-19 07:43:00,69.8,65.8,29.90,SE,135,8.1,8.9,87,0.00,,,0.00,WUHU216WMR100,2013-09-19 12:43:00,
2013-09-19 07:48:00,69.6,65.6,29.90,SE,139,2.4,9.9,87,0.00,,,0.00,WUHU216WMR100,2013-09-19 12:48:00,
2013-09-19 07:53:00,69.3,64.9,29.90,SE,135,5.9,9.9,86,0.00,,,0.00,WUHU216WMR100,2013-09-19 12:53:00,
2013-09-19 07:58:00,69.1,65.1,29.90,ENE,67,3.3,6.6,87,0.00,,,0.00,WUHU216WMR100,2013-09-19 12:58:00,
2013-09-19 08:03:00,68.9,64.9,29.90,ESE,112,5.6,5.9,87,0.00,,,0.00,WUHU216WMR100,2013-09-19 13:03:00,
2013-09-19 08:08:00,68.9,65.2,29.90,ESE,112,4.5,5.6,88,0.00,,,0.00,WUHU216WMR100,2013-09-19 13:08:00,
2013-09-19 08:13:00,68.8,65.4,29.90,South,180,0.0,8.1,89,0.00,,,0.00,WUHU216WMR100,2013-09-19 13:13:00,
2013-09-19 08:18:00,68.7,65.7,29.90,North,0,5.1,8.1,90,0.00,,,0.00,WUHU216WMR100,2013-09-19 13:18:00,
2013-09-19 08:23:00,68.7,65.6,29.90,SSE,154,3.4,7.1,90,0.05,,,0.05,WUHU216WMR100,2013-09-19 13:23:00,
2013-09-19 08:28:00,68.6,65.5,29.90,SE,127,5.0,6.3,90,0.05,,,0.05,WUHU216WMR100,2013-09-19 13:28:00,
2013-09-19 08:33:00,68.5,65.8,29.90,South,183,3.9,5.6,91,0.05,,,0.05,WUHU216WMR100,2013-09-19 13:33:00,
2013-09-19 08:38:00,68.9,66.4,29.90,SSE,151,5.8,5.9,92,0.05,,,0.05,WUHU216WMR100,2013-09-19 13:38:00,
2013-09-19 08:43:00,68.9,66.8,29.90,SSW,202,4.5,5.9,93,0.05,,,0.05,WUHU216WMR100,2013-09-19 13:43:00,
2013-09-19 08:48:00,69.3,66.8,29.90,SSE,157,2.6,5.6,92,0.05,,,0.05,WUHU216WMR100,2013-09-19 13:48:00,
2013-09-19 08:53:00,69.4,66.9,29.90,SW,220,3.5,4.8,92,0.05,,,0.05,WUHU216WMR100,2013-09-19 13:53:00,
2013-09-19 08:58:00,69.5,67.1,29.90,SW,233,4.6,8.9,92,0.05,,,0.05,WUHU216WMR100,2013-09-19 13:58:00,
2013-09-19 09:03:00,69.8,67.0,29.90,SSE,157,3.6,8.9,91,0.05,,,0.05,WUHU216WMR100,2013-09-19 14:03:00,
2013-09-19 09:08:00,69.9,67.1,29.90,West,270,4.1,5.6,91,0.05,,,0.05,WUHU216WMR100,2013-09-19 14:08:00,
2013-09-19 09:13:00,70.3,67.5,29.90,SSE,157,0.0,5.6,91,0.05,,,0.05,WUHU216WMR100,2013-09-19 14:13:00,
2013-09-19 09:18:00,70.3,67.2,29.90,SE,142,3.6,7.4,90,0.05,,,0.05,WUHU216WMR100,2013-09-19 14:18:00,
2013-09-19 09:23:00,70.2,66.8,29.90,ESE,112,2.6,7.4,89,0.00,,,0.05,WUHU216WMR100,2013-09-19 14:23:00,
2013-09-19 09:28:00,70.4,67.0,29.90,SSE,157,4.5,7.4,89,0.00,,,0.05,WUHU216WMR100,2013-09-19 14:28:00,
2013-09-19 09:33:00,70.5,66.5,29.90,SSW,200,5.5,7.4,87,0.00,,,0.05,WUHU216WMR100,2013-09-19 14:33:00,
2013-09-19 09:38:00,70.7,66.6,29.90,East,100,3.9,7.1,87,0.00,,,0.05,WUHU216WMR100,2013-09-19 14:38:00,
2013-09-19 09:43:00,70.6,66.6,29.90,WSW,247,5.9,5.9,87,0.00,,,0.05,WUHU216WMR100,2013-09-19 14:43:00,
2013-09-19 09:48:00,70.8,66.7,29.90,SSE,150,2.9,5.9,87,0.00,,,0.05,WUHU216WMR100,2013-09-19 14:48:00,
2013-09-19 09:53:00,70.8,67.1,29.90,SE,144,4.4,5.9,88,0.00,,,0.05,WUHU216WMR100,2013-09-19 14:53:00,
2013-09-19 09:58:00,71.0,67.2,29.90,ENE,67,3.3,4.8,88,0.00,,,0.05,WUHU216WMR100,2013-09-19 14:58:00,
2013-09-19 10:03:00,71.1,67.4,29.90,South,180,4.5,5.9,88,0.00,,,0.05,WUHU216WMR100,2013-09-19 15:03:00,
2013-09-19 10:08:00,71.3,67.5,29.90,ENE,73,3.1,5.9,88,0.00,,,0.05,WUHU216WMR100,2013-09-19 15:08:00,
2013-09-19 10:13:00,71.4,67.3,29.90,ENE,67,3.3,4.1,87,0.00,,,0.05,WUHU216WMR100,2013-09-19 15:13:00,
2013-09-19 10:18:00,71.4,67.3,29.90,SSE,157,6.3,6.3,87,0.00,,,0.05,WUHU216WMR100,2013-09-19 15:18:00,
2013-09-19 10:23:00,71.3,67.2,29.90,SE,131,3.7,6.3,87,0.00,,,0.05,WUHU216WMR100,2013-09-19 15:23:00,
2013-09-19 10:28:00,71.1,66.7,29.90,SSE,157,2.6,5.6,86,0.00,,,0.05,WUHU216WMR100,2013-09-19 15:28:00,
2013-09-19 10:33:00,71.2,67.2,29.90,SSE,157,6.3,6.3,87,0.00,,,0.05,WUHU216WMR100,2013-09-19 15:33:00,
2013-09-19 10:38:00,71.5,67.4,29.90,SSE,160,4.6,6.3,87,0.00,,,0.05,WUHU216WMR100,2013-09-19 15:38:00,
2013-09-19 10:43:00,71.6,67.6,29.90,ESE,112,3.6,6.3,87,0.00,,,0.05,WUHU216WMR100,2013-09-19 15:43:00,
2013-09-19 10:48:00,72.3,68.5,29.90,SSE,157,3.6,4.8,88,0.00,,,0.05,WUHU216WMR100,2013-09-19 15:48:00,
2013-09-19 10:53:00,72.8,69.1,29.90,SSE,157,4.8,4.8,88,0.00,,,0.05,WUHU216WMR100,2013-09-19 15:53:00,
2013-09-19 10:58:00,73.5,69.1,29.90,ESE,123,4.5,5.9,86,0.00,,,0.05,WUHU216WMR100,2013-09-19 15:58:00,
2013-09-19 11:03:00,73.8,68.3,29.90,East,97,2.5,5.9,83,0.00,,,0.05,WUHU216WMR100,2013-09-19 16:03:00,
2013-09-19 11:08:00,73.7,67.6,29.90,East,90,4.8,5.1,81,0.00,,,0.05,WUHU216WMR100,2013-09-19 16:08:00,
2013-09-19 11:13:00,73.6,67.1,29.90,East,86,3.3,5.1,80,0.00,,,0.05,WUHU216WMR100,2013-09-19 16:13:00,
2013-09-19 11:18:00,73.0,66.9,29.90,NE,51,2.2,4.8,81,0.00,,,0.05,WUHU216WMR100,2013-09-19 16:18:00,
2013-09-19 11:23:00,72.6,66.5,29.90,ENE,67,5.1,5.1,81,0.00,,,0.05,WUHU216WMR100,2013-09-19 16:23:00,
2013-09-19 11:28:00,72.0,66.3,29.90,NNE,22,2.1,5.1,82,0.00,,,0.05,WUHU216WMR100,2013-09-19 16:28:00,
2013-09-19 11:33:00,71.5,66.1,29.90,NW,321,4.6,5.1,83,0.00,,,0.05,WUHU216WMR100,2013-09-19 16:33:00,
2013-09-19 11:38:00,70.8,66.5,29.90,North,0,4.1,5.1,86,0.04,,,0.09,WUHU216WMR100,2013-09-19 16:38:00,
2013-09-19 11:43:00,70.3,66.6,29.90,North,0,2.4,5.1,88,0.21,,,0.26,WUHU216WMR100,2013-09-19 16:43:00,
2013-09-19 11:48:00,69.9,66.5,29.90,NE,45,4.1,7.1,89,0.29,,,0.34,WUHU216WMR100,2013-09-19 16:48:00,
2013-09-19 11:53:00,69.6,66.8,29.90,ENE,67,3.3,8.1,91,0.29,,,0.34,WUHU216WMR100,2013-09-19 16:53:00,
2013-09-19 11:58:00,69.3,66.9,29.90,ESE,112,2.6,8.1,92,0.29,,,0.34,WUHU216WMR100,2013-09-19 16:58:00,
2013-09-19 12:03:00,68.9,67.1,29.93,ENE,57,5.5,7.8,94,0.54,,,0.59,WUHU216WMR100,2013-09-19 17:03:00,
2013-09-19 12:08:00,68.8,67.3,29.93,SE,142,3.1,7.8,95,0.62,,,0.67,WUHU216WMR100,2013-09-19 17:08:00,
2013-09-19 12:13:00,68.4,67.5,29.93,East,90,8.9,11.9,97,0.79,,,0.84,WUHU216WMR100,2013-09-19 17:13:00,
2013-09-19 12:18:00,68.4,67.8,29.93,East,94,7.3,11.9,98,0.79,,,0.84,WUHU216WMR100,2013-09-19 17:18:00,
2013-09-19 12:23:00,68.0,67.4,29.93,NNE,32,9.7,10.4,98,0.79,,,0.84,WUHU216WMR100,2013-09-19 17:23:00,
2013-09-19 12:28:00,67.8,67.5,29.93,ENE,74,9.0,14.4,99,0.79,,,0.84,WUHU216WMR100,2013-09-19 17:28:00,
2013-09-19 12:33:00,67.6,67.3,29.93,ESE,112,10.7,14.4,99,0.79,,,0.84,WUHU216WMR100,2013-09-19 17:33:00,
2013-09-19 12:38:00,67.6,67.3,29.93,ESE,112,12.9,15.5,99,0.75,,,0.84,WUHU216WMR100,2013-09-19 17:38:00,
2013-09-19 12:43:00,67.6,67.3,29.93,East,90,6.3,15.5,99,0.54,,,0.84,WUHU216WMR100,2013-09-19 17:43:00,
2013-09-19 12:48:00,67.6,67.3,29.90,ESE,112,8.9,9.6,99,0.50,,,0.84,WUHU216WMR100,2013-09-19 17:48:00,
2013-09-19 12:53:00,67.6,67.3,29.90,SSE,157,7.8,9.6,99,0.50,,,0.84,WUHU216WMR100,2013-09-19 17:53:00,
2013-09-19 12:58:00,67.9,67.6,29.90,SE,135,7.8,9.6,99,0.50,,,0.84,WUHU216WMR100,2013-09-19 17:58:00,
2013-09-19 13:03:00,68.1,67.8,29.90,East,93,8.6,9.9,99,0.21,,,0.84,WUHU216WMR100,2013-09-19 18:03:00,
2013-09-19 13:08:00,68.3,68.0,29.90,ENE,67,8.9,11.9,99,0.09,,,0.84,WUHU216WMR100,2013-09-19 18:08:00,
2013-09-19 13:13:00,68.8,68.5,29.90,South,180,11.9,11.9,99,0.04,,,0.84,WUHU216WMR100,2013-09-19 18:13:00,
2013-09-19 13:18:00,69.2,68.9,29.90,ESE,108,6.5,14.0,99,0.00,,,0.84,WUHU216WMR100,2013-09-19 18:18:00,
2013-09-19 13:23:00,69.4,68.8,29.90,SSE,157,14.7,17.3,98,0.00,,,0.84,WUHU216WMR100,2013-09-19 18:23:00,
2013-09-19 13:28:00,70.1,68.6,29.90,ENE,67,12.2,17.3,95,0.00,,,0.84,WUHU216WMR100,2013-09-19 18:28:00,
2013-09-19 13:33:00,70.6,68.2,29.90,SE,135,9.2,14.7,92,0.00,,,0.84,WUHU216WMR100,2013-09-19 18:33:00,
2013-09-19 13:38:00,71.0,67.3,29.90,East,86,10.9,16.2,88,0.00,,,0.84,WUHU216WMR100,2013-09-19 18:38:00,
2013-09-19 13:43:00,71.4,66.1,29.90,SE,135,10.4,16.2,83,0.00,,,0.84,WUHU216WMR100,2013-09-19 18:43:00,
2013-09-19 13:48:00,71.6,65.2,29.90,ESE,112,17.9,21.8,80,0.00,,,0.84,WUHU216WMR100,2013-09-19 18:48:00,
2013-09-19 13:53:00,72.0,64.9,29.90,East,93,9.7,21.8,78,0.00,,,0.84,WUHU216WMR100,2013-09-19 18:53:00,
2013-09-19 13:58:00,72.9,64.3,29.90,ESE,122,13.8,21.8,74,0.00,,,0.84,WUHU216WMR100,2013-09-19 18:58:00,
2013-09-19 14:03:00,73.6,64.6,29.87,SE,134,8.2,21.8,73,0.00,,,0.84,WUHU216WMR100,2013-09-19 19:03:00,
2013-09-19 14:08:00,74.9,64.7,29.87,ESE,121,12.7,16.2,70,0.00,,,0.84,WUHU216WMR100,2013-09-19 19:08:00,
2013-09-19 14:13:00,75.5,64.8,29.87,SSE,150,13.3,14.4,69,0.00,,,0.84,WUHU216WMR100,2013-09-19 19:13:00,
2013-09-19 14:18:00,75.9,65.2,29.87,East,86,13.3,17.3,69,0.00,,,0.84,WUHU216WMR100,2013-09-19 19:18:00,
2013-09-19 14:23:00,76.2,64.7,29.87,SSE,162,12.7,17.7,67,0.00,,,0.84,WUHU216WMR100,2013-09-19 19:23:00,
2013-09-19 14:28:00,77.0,65.9,29.87,SSE,157,9.6,17.7,68,0.00,,,0.84,WUHU216WMR100,2013-09-19 19:28:00,
2013-09-19 14:33:00,78.0,66.3,29.87,ESE,112,8.1,15.2,67,0.00,,,0.84,WUHU216WMR100,2013-09-19 19:33:00,
2013-09-19 14:38:00,78.3,65.8,29.87,ESE,112,8.3,11.9,65,0.00,,,0.84,WUHU216WMR100,2013-09-19 19:38:00,
2013-09-19 14:43:00,78.5,65.1,29.87,ESE,112,5.1,11.9,63,0.00,,,0.84,WUHU216WMR100,2013-09-19 19:43:00,
2013-09-19 14:48:00,78.9,64.6,29.84,ESE,112,12.9,12.9,61,0.00,,,0.84,WUHU216WMR100,2013-09-19 19:48:00,
2013-09-19 14:53:00,79.3,64.4,29.84,ESE,112,10.4,12.9,60,0.00,,,0.84,WUHU216WMR100,2013-09-19 19:53:00,
2013-09-19 14:58:00,79.9,65.0,29.84,ESE,112,5.9,12.9,60,0.00,,,0.84,WUHU216WMR100,2013-09-19 19:58:00,
2013-09-19 15:03:00,80.4,64.5,29.84,ENE,67,8.9,10.4,58,0.00,,,0.84,WUHU216WMR100,2013-09-19 20:03:00,
2013-09-19 15:08:00,80.1,63.7,29.84,East,100,6.0,9.2,57,0.00,,,0.84,WUHU216WMR100,2013-09-19 20:08:00,
2013-09-19 15:13:00,79.2,61.3,29.84,SE,137,11.4,17.0,54,0.00,,,0.84,WUHU216WMR100,2013-09-19 20:13:00,
2013-09-19 15:18:00,79.0,61.6,29.84,ESE,112,10.7,17.0,55,0.00,,,0.84,WUHU216WMR100,2013-09-19 20:18:00,
2013-09-19 15:23:00,78.4,61.6,29.84,SSW,202,18.5,18.5,56,0.00,,,0.84,WUHU216WMR100,2013-09-19 20:23:00,
2013-09-19 15:28:00,77.7,62.5,29.84,ESE,112,10.7,21.5,59,0.00,,,0.84,WUHU216WMR100,2013-09-19 20:28:00,
2013-09-19 15:33:00,78.0,63.2,29.84,SSE,147,13.5,21.5,60,0.00,,,0.84,WUHU216WMR100,2013-09-19 20:33:00,
2013-09-19 15:38:00,78.5,63.7,29.84,East,86,10.5,21.1,60,0.00,,,0.84,WUHU216WMR100,2013-09-19 20:38:00,
2013-09-19 15:43:00,78.8,63.0,29.84,SSE,157,14.0,15.5,58,0.00,,,0.84,WUHU216WMR100,2013-09-19 20:43:00,
2013-09-19 15:48:00,79.0,63.7,29.82,ESE,112,9.6,14.0,59,0.00,,,0.84,WUHU216WMR100,2013-09-19 20:48:00,
2013-09-19 15:53:00,79.3,63.9,29.82,ENE,67,12.2,14.0,59,0.00,,,0.84,WUHU216WMR100,2013-09-19 20:53:00,
2013-09-19 15:59:00,79.5,63.2,29.82,SSE,157,10.7,14.0,57,0.00,,,0.84,WUHU216WMR100,2013-09-19 20:59:00,
2013-09-19 16:04:00,78.7,62.9,29.82,ESE,110,7.0,12.5,58,0.00,,,0.84,WUHU216WMR100,2013-09-19 21:04:00,
2013-09-19 16:09:00,77.4,62.7,29.82,SSE,157,8.9,12.5,60,0.00,,,0.84,WUHU216WMR100,2013-09-19 21:09:00,
2013-09-19 16:14:00,76.6,63.3,29.82,South,186,5.4,11.1,63,0.00,,,0.84,WUHU216WMR100,2013-09-19 21:14:00,
2013-09-19 16:19:00,75.7,63.8,29.82,SE,137,12.4,16.7,66,0.00,,,0.84,WUHU216WMR100,2013-09-19 21:19:00,
2013-09-19 16:24:00,75.3,64.6,29.82,SSE,167,5.5,16.7,69,0.00,,,0.84,WUHU216WMR100,2013-09-19 21:24:00,
2013-09-19 16:29:00,74.9,64.7,29.82,East,81,5.1,9.2,70,0.00,,,0.84,WUHU216WMR100,2013-09-19 21:29:00,
2013-09-19 16:34:00,74.8,65.3,29.82,ESE,115,8.0,10.7,72,0.00,,,0.84,WUHU216WMR100,2013-09-19 21:34:00,
2013-09-19 16:39:00,75.3,66.6,29.82,SSE,157,9.6,10.7,74,0.00,,,0.84,WUHU216WMR100,2013-09-19 21:39:00,
2013-09-19 16:44:00,77.1,67.2,29.82,ESE,112,8.9,9.6,71,0.00,,,0.84,WUHU216WMR100,2013-09-19 21:44:00,
2013-09-19 16:48:00,78.6,67.3,29.82,SW,234,6.4,9.6,68,0.00,,,0.84,WUHU216WMR100,2013-09-19 21:48:00,
2013-09-19 16:53:00,79.2,66.7,29.82,SE,128,4.4,8.9,65,0.00,,,0.84,WUHU216WMR100,2013-09-19 21:53:00,
2013-09-19 16:58:00,79.6,65.7,29.82,ESE,112,7.1,7.1,62,0.00,,,0.84,WUHU216WMR100,2013-09-19 21:58:00,
2013-09-19 17:03:00,79.6,65.7,29.82,ESE,105,6.5,7.1,62,0.00,,,0.84,WUHU216WMR100,2013-09-19 22:03:00,
2013-09-19 17:08:00,79.9,66.0,29.82,SSE,157,4.1,11.9,62,0.00,,,0.84,WUHU216WMR100,2013-09-19 22:08:00,
2013-09-19 17:13:00,80.0,64.6,29.82,SW,225,4.5,11.9,59,0.00,,,0.84,WUHU216WMR100,2013-09-19 22:13:00,
2013-09-19 17:18:00,79.8,64.4,29.82,ESE,112,9.6,9.6,59,0.00,,,0.84,WUHU216WMR100,2013-09-19 22:18:00,
2013-09-19 17:23:00,78.5,63.2,29.82,ESE,112,10.4,10.4,59,0.00,,,0.84,WUHU216WMR100,2013-09-19 22:23:00,
2013-09-19 17:28:00,78.1,63.8,29.82,ESE,112,9.9,10.4,61,0.00,,,0.84,WUHU216WMR100,2013-09-19 22:28:00,
2013-09-19 17:33:00,77.5,64.6,29.79,ESE,112,4.8,10.4,64,0.00,,,0.84,WUHU216WMR100,2013-09-19 22:33:00,
2013-09-19 17:38:00,77.2,64.7,29.79,ESE,112,4.5,10.4,65,0.00,,,0.84,WUHU216WMR100,2013-09-19 22:38:00,
2013-09-19 17:43:00,76.5,64.6,29.79,SSE,157,5.9,10.4,66,0.00,,,0.84,WUHU216WMR100,2013-09-19 22:43:00,
2013-09-19 17:48:00,76.1,64.6,29.79,ESE,112,3.9,7.4,67,0.00,,,0.84,WUHU216WMR100,2013-09-19 22:48:00,
2013-09-19 17:53:00,75.6,64.9,29.79,ESE,123,3.4,5.9,69,0.00,,,0.84,WUHU216WMR100,2013-09-19 22:53:00,
2013-09-19 17:58:00,75.6,65.3,29.79,East,89,8.3,12.2,70,0.00,,,0.84,WUHU216WMR100,2013-09-19 22:58:00,
2013-09-19 18:03:00,75.9,65.6,29.79,South,180,4.1,12.2,70,0.00,,,0.84,WUHU216WMR100,2013-09-19 23:03:00,
2013-09-19 18:08:00,75.9,65.6,29.79,South,180,2.1,7.8,70,0.00,,,0.84,WUHU216WMR100,2013-09-19 23:08:00,
2013-09-19 18:13:00,75.6,64.9,29.79,South,175,3.5,7.1,69,0.00,,,0.84,WUHU216WMR100,2013-09-19 23:13:00,
2013-09-19 18:19:00,75.4,65.1,29.79,East,94,4.6,7.1,70,0.00,,,0.84,WUHU216WMR100,2013-09-19 23:19:00,
2013-09-19 18:24:00,75.0,65.5,29.79,ESE,112,6.6,7.1,72,0.00,,,0.84,WUHU216WMR100,2013-09-19 23:24:00,
2013-09-19 18:29:00,74.7,65.3,29.79,ESE,112,8.1,8.1,72,0.00,,,0.84,WUHU216WMR100,2013-09-19 23:29:00,
2013-09-19 18:34:00,74.3,65.6,29.79,ENE,67,4.5,8.1,74,0.00,,,0.84,WUHU216WMR100,2013-09-19 23:34:00,
2013-09-19 18:39:00,74.1,65.8,29.79,South,186,5.1,8.1,75,0.00,,,0.84,WUHU216WMR100,2013-09-19 23:39:00,
2013-09-19 18:44:00,73.9,65.6,29.79,ESE,112,7.1,7.1,75,0.00,,,0.84,WUHU216WMR100,2013-09-19 23:44:00,
2013-09-19 18:49:00,73.8,65.9,29.79,SSE,164,3.1,7.1,76,0.00,,,0.84,WUHU216WMR100,2013-09-19 23:49:00,
2013-09-19 18:54:00,73.6,66.1,29.79,SSE,157,2.1,7.1,77,0.00,,,0.84,WUHU216WMR100,2013-09-19 23:54:00,
2013-09-19 18:59:00,73.2,66.0,29.79,ESE,112,8.9,8.9,78,0.00,,,0.84,WUHU216WMR100,2013-09-19 23:59:00,
2013-09-19 19:04:00,73.0,66.2,29.79,ENE,67,0.0,8.9,79,0.00,,,0.84,WUHU216WMR100,2013-09-20 00:04:00,
2013-09-19 19:09:00,72.9,66.8,29.79,SE,135,4.8,8.9,81,0.00,,,0.84,WUHU216WMR100,2013-09-20 00:09:00,
2013-09-19 19:14:00,72.7,66.6,29.79,ENE,67,0.0,6.6,81,0.00,,,0.84,WUHU216WMR100,2013-09-20 00:14:00,
2013-09-19 19:19:00,72.5,66.4,29.79,ESE,112,2.1,4.8,81,0.00,,,0.84,WUHU216WMR100,2013-09-20 00:19:00,
2013-09-19 19:24:00,72.3,66.2,29.79,East,96,2.2,5.9,81,0.00,,,0.84,WUHU216WMR100,2013-09-20 00:24:00,
2013-09-19 19:29:00,72.1,66.0,29.79,ESE,112,0.0,5.9,81,0.00,,,0.84,WUHU216WMR100,2013-09-20 00:29:00,
2013-09-19 19:34:00,72.0,65.9,29.82,SE,135,0.0,1.8,81,0.00,,,0.84,WUHU216WMR100,2013-09-20 00:34:00,
2013-09-19 19:39:00,72.0,65.9,29.82,ESE,112,1.5,2.1,81,0.00,,,0.84,WUHU216WMR100,2013-09-20 00:39:00,
2013-09-19 19:44:00,71.8,66.1,29.82,East,89,2.8,3.6,82,0.00,,,0.84,WUHU216WMR100,2013-09-20 00:44:00,
2013-09-19 19:49:00,71.6,65.9,29.79,SE,135,0.0,3.6,82,0.00,,,0.84,WUHU216WMR100,2013-09-20 00:49:00,
2013-09-19 19:54:00,71.6,65.9,29.79,West,270,5.6,5.6,82,0.00,,,0.84,WUHU216WMR100,2013-09-20 00:54:00,
2013-09-19 19:59:00,71.8,65.7,29.79,SSE,157,2.1,6.3,81,0.00,,,0.84,WUHU216WMR100,2013-09-20 00:59:00,
2013-09-19 20:04:00,71.8,65.7,29.82,ESE,108,3.2,6.3,81,0.00,,,0.84,WUHU216WMR100,2013-09-20 01:04:00,
2013-09-19 20:09:00,71.8,65.4,29.82,SSE,157,4.1,4.8,80,0.00,,,0.84,WUHU216WMR100,2013-09-20 01:09:00,
2013-09-19 20:14:00,71.8,65.4,29.82,ESE,109,4.2,5.6,80,0.00,,,0.84,WUHU216WMR100,2013-09-20 01:14:00,
2013-09-19 20:19:00,72.0,65.2,29.82,SSE,157,0.0,9.2,79,0.00,,,0.84,WUHU216WMR100,2013-09-20 01:19:00,
2013-09-19 20:24:00,72.0,65.2,29.82,East,90,3.6,9.2,79,0.00,,,0.84,WUHU216WMR100,2013-09-20 01:24:00,
2013-09-19 20:29:00,72.0,65.2,29.82,SE,135,4.1,5.9,79,0.00,,,0.84,WUHU216WMR100,2013-09-20 01:29:00,
2013-09-19 20:34:00,72.0,65.6,29.82,SSE,148,4.6,7.8,80,0.00,,,0.84,WUHU216WMR100,2013-09-20 01:34:00,
2013-09-19 20:39:00,72.0,65.6,29.82,SE,135,1.5,7.8,80,0.00,,,0.84,WUHU216WMR100,2013-09-20 01:39:00,
2013-09-19 20:44:00,72.1,66.0,29.79,SSE,157,3.4,8.1,81,0.00,,,0.84,WUHU216WMR100,2013-09-20 01:44:00,
2013-09-19 20:49:00,72.5,66.8,29.79,SSW,202,4.8,8.1,82,0.00,,,0.84,WUHU216WMR100,2013-09-20 01:49:00,
2013-09-19 20:54:00,72.5,66.8,29.79,ESE,112,1.7,6.3,82,0.00,,,0.84,WUHU216WMR100,2013-09-20 01:54:00,
2013-09-19 20:59:00,72.5,66.4,29.79,East,90,4.1,5.1,81,0.00,,,0.84,WUHU216WMR100,2013-09-20 01:59:00,
2013-09-19 21:04:00,72.7,67.0,29.79,South,183,1.9,7.8,82,0.00,,,0.84,WUHU216WMR100,2013-09-20 02:04:00,
2013-09-19 21:09:00,72.7,67.0,29.79,SSE,154,3.9,7.8,82,0.00,,,0.84,WUHU216WMR100,2013-09-20 02:09:00,
2013-09-19 21:14:00,72.9,67.1,29.79,East,80,2.5,7.1,82,0.00,,,0.84,WUHU216WMR100,2013-09-20 02:14:00,
2013-09-19 21:19:00,72.9,67.1,29.79,SSE,168,4.2,7.1,82,0.00,,,0.84,WUHU216WMR100,2013-09-20 02:19:00,
2013-09-19 21:24:00,73.0,67.2,29.79,ENE,67,5.1,9.2,82,0.00,,,0.84,WUHU216WMR100,2013-09-20 02:24:00,
2013-09-19 21:29:00,72.9,67.1,29.79,SSE,157,1.5,9.2,82,0.00,,,0.84,WUHU216WMR100,2013-09-20 02:29:00,
2013-09-19 21:34:00,72.9,67.1,29.79,SSE,157,2.1,5.1,82,0.00,,,0.84,WUHU216WMR100,2013-09-20 02:34:00,
2013-09-19 21:39:00,73.0,67.2,29.79,SSE,157,3.6,6.6,82,0.00,,,0.84,WUHU216WMR100,2013-09-20 02:39:00,
2013-09-19 21:44:00,72.9,67.1,29.79,ESE,112,2.6,6.6,82,0.00,,,0.84,WUHU216WMR100,2013-09-20 02:44:00,
2013-09-19 21:49:00,72.9,67.1,29.79,East,89,2.9,6.3,82,0.00,,,0.84,WUHU216WMR100,2013-09-20 02:49:00,
2013-09-19 21:54:00,72.9,67.5,29.79,South,180,3.3,4.8,83,0.00,,,0.84,WUHU216WMR100,2013-09-20 02:54:00,
2013-09-19 21:59:00,72.7,67.3,29.79,SSE,157,4.1,4.8,83,0.00,,,0.84,WUHU216WMR100,2013-09-20 02:59:00,
2013-09-19 22:04:00,72.7,67.6,29.79,South,180,3.3,5.6,84,0.00,,,0.84,WUHU216WMR100,2013-09-20 03:04:00,
2013-09-19 22:09:00,72.7,68.0,29.79,South,169,2.6,8.1,85,0.00,,,0.84,WUHU216WMR100,2013-09-20 03:09:00,
2013-09-19 22:14:00,72.7,67.6,29.79,SSE,157,2.6,8.1,84,0.00,,,0.84,WUHU216WMR100,2013-09-20 03:14:00,
2013-09-19 22:19:00,72.7,68.0,29.79,SSE,157,7.1,7.1,85,0.00,,,0.84,WUHU216WMR100,2013-09-20 03:19:00,
2013-09-19 22:24:00,72.7,68.3,29.79,SE,135,3.3,7.1,86,0.00,,,0.84,WUHU216WMR100,2013-09-20 03:24:00,
2013-09-19 22:29:00,72.9,68.8,29.79,SE,141,4.4,4.8,87,0.00,,,0.84,WUHU216WMR100,2013-09-20 03:29:00,
2013-09-19 22:34:00,73.0,69.2,29.79,East,101,4.4,5.9,88,0.00,,,0.84,WUHU216WMR100,2013-09-20 03:34:00,
2013-09-19 22:39:00,73.0,69.2,29.79,ESE,112,2.1,5.9,88,0.00,,,0.84,WUHU216WMR100,2013-09-20 03:39:00,
2013-09-19 22:44:00,73.2,69.4,29.79,SE,145,2.9,12.2,88,0.00,,,0.84,WUHU216WMR100,2013-09-20 03:44:00,
2013-09-19 22:49:00,73.4,69.3,29.79,WSW,247,5.1,12.2,87,0.00,,,0.84,WUHU216WMR100,2013-09-20 03:49:00,
2013-09-19 22:54:00,73.4,69.3,29.79,ESE,112,4.5,5.6,87,0.00,,,0.84,WUHU216WMR100,2013-09-20 03:54:00,
2013-09-19 22:59:00,73.6,69.2,29.79,South,185,3.6,6.3,86,0.00,,,0.84,WUHU216WMR100,2013-09-20 03:59:00,
2013-09-19 23:01:00,73.6,69.2,29.79,NW,315,8.1,8.1,86,0.00,,,0.84,WUHU216WMR100,2013-09-20 04:01:00,
2013-09-19 23:06:00,73.8,69.4,29.79,ESE,112,6.3,11.9,86,0.00,,,0.84,WUHU216WMR100,2013-09-20 04:06:00,
2013-09-19 23:11:00,73.9,69.5,29.79,East,81,5.8,11.9,86,0.00,,,0.84,WUHU216WMR100,2013-09-20 04:11:00,
2013-09-19 23:16:00,73.9,69.1,29.79,WSW,247,4.1,6.6,85,0.00,,,0.84,WUHU216WMR100,2013-09-20 04:16:00,
2013-09-19 23:21:00,73.9,69.1,29.79,SSE,157,4.8,5.6,85,0.00,,,0.84,WUHU216WMR100,2013-09-20 04:21:00,
2013-09-19 23:26:00,73.9,69.1,29.79,SSE,157,4.1,5.9,85,0.00,,,0.84,WUHU216WMR100,2013-09-20 04:26:00,
2013-09-19 23:31:00,73.9,69.1,29.79,WSW,238,1.7,5.9,85,0.00,,,0.84,WUHU216WMR100,2013-09-20 04:31:00,
2013-09-19 23:36:00,73.9,69.1,29.79,East,90,5.1,6.3,85,0.00,,,0.84,WUHU216WMR100,2013-09-20 04:36:00,
2013-09-19 23:41:00,74.1,69.0,29.79,SSW,202,4.7,6.3,84,0.00,,,0.84,WUHU216WMR100,2013-09-20 04:41:00,
2013-09-19 23:46:00,74.1,69.0,29.79,SSE,157,2.1,8.1,84,0.00,,,0.84,WUHU216WMR100,2013-09-20 04:46:00,
2013-09-19 23:51:00,74.1,69.0,29.79,SW,229,7.3,10.4,84,0.00,,,0.84,WUHU216WMR100,2013-09-20 04:51:00,
2013-09-19 23:56:00,74.3,69.2,29.79,NNW,332,4.6,10.4,84,0.00,,,0.84,WUHU216WMR100,2013-09-20 04:56:00,